[[{"header":{"parameterUnit":"m.s-1","parameterCategory":1,"la1":30.2991,"la2":30.254,"lo1":-89.0895,"lo2":-89.0444,"dy":0.0017,"dx":0.0017,"nx":28,"ny":28,"refTime":"2023-11-20T03:00:00:Z","depth":0,"parameterNumber":2,"parameterNumberName":"U-component_of_WINDS"},"data":[0,0,0,0,0,0,0,0,0,0,0,0,0,0,0,0,0,0,0,0,0,0,0,0,0,0,0,0,0,0,0,0,0,0,0,0,0,0,0,0,0,0,0,0,0,0,0,0,0,0,0,0,0,0,0,0,0,0,-0.1886,-0.1886,0,-0.1913,-0.1913,-0.1913,-0.1954,-0.1955,-0.1955,-0.1956,-0.1983,-0.1983,-0.1983,0,0,0,0,0,0,0,0,0,0,0,0,0,-0.1868,-0.1868,-0.1886,-0.1886,-0.1887,-0.1913,-0.1913,-0.1914,-0.1954,-0.1955,-0.1956,-0.1956,-0.1983,-0.1983,-0.1983,0,0,0,0,0,0,0,0,0,0,0,0,0,-0.1884,-0.1869,-0.1886,-0.191,-0.1912,-0.1913,-0.1913,-0.1914,-0.1954,-0.1955,-0.1956,-0.1957,-0.1983,-0.1983,-0.1983,-0.1962,0,0,-0.1983,-0.1983,0,0,0,0,0,0,0,0,-0.1883,-0.1884,-0.1906,-0.1908,-0.1911,-0.1931,-0.1917,-0.193,-0.1953,-0.1938,-0.1956,-0.1957,-0.1965,-0.1966,-0.1969,-0.1963,-0.1964,-0.1983,-0.1983,-0.1983,-0.1983,0,0,0,0,0,0,0,-0.1882,-0.1883,-0.1897,-0.1906,-0.1909,-0.1919,-0.1922,-0.1919,-0.1945,-0.1939,-0.1942,-0.1945,-0.1966,-0.1969,-0.197,-0.1965,-0.1983,-0.1983,-0.1983,-0.1983,-0.1942,-0.1941,0,0,0,0,0,0,-0.1877,-0.1882,-0.1896,-0.1897,-0.1899,-0.1918,-0.1922,-0.1924,-0.1945,-0.1949,-0.1944,-0.1947,-0.1968,-0.197,-0.1971,-0.1947,-0.1983,-0.1983,-0.1983,-0.1943,-0.1942,-0.194,0,0,0,0,0,0,-0.1877,-0.1878,-0.1895,-0.1891,-0.1893,-0.1918,-0.1919,-0.1923,-0.1926,-0.1949,-0.1953,-0.1942,-0.1969,-0.1971,-0.1964,-0.1949,-0.1983,-0.1983,-0.1944,-0.1943,-0.1941,-0.1899,0,0,0,0,0,0,-0.1876,-0.1878,-0.187,-0.189,-0.1894,-0.1887,-0.1918,-0.1923,-0.1926,-0.193,-0.1948,-0.1952,-0.197,-0.1963,-0.1964,-0.1949,-0.1983,-0.1946,-0.1944,-0.1942,-0.1902,-0.1896,-0.1891,0,0,0,0,0,-0.1875,-0.1857,-0.1869,-0.1871,-0.1885,-0.1886,-0.1888,-0.1909,-0.1925,-0.1917,-0.1932,-0.1951,-0.195,-0.1962,-0.1963,-0.1948,-0.1947,-0.1944,-0.1942,-0.1905,-0.1898,-0.1892,0,0,0,0,0,0,-0.1835,-0.186,-0.1874,-0.1862,-0.1872,-0.1893,-0.1884,-0.1901,-0.1906,-0.191,-0.1936,-0.194,-0.1929,-0.1938,-0.1951,-0.1929,-0.1951,-0.1949,-0.1923,-0.1917,-0.1911,-0.1909,-0.1983,0,0,0,0,0,-0.1824,-0.1824,-0.1846,-0.1833,-0.1837,-0.186,-0.1861,-0.1877,-0.1888,-0.1892,-0.1906,-0.1915,-0.1917,-0.1917,-0.192,-0.1904,-0.1908,-0.1894,-0.1889,-0.1884,-0.1882,-0.1873,-0.1867,-0.1932,-0.1932,-0.1932,0,0,-0.1803,-0.1817,-0.1815,-0.1826,-0.1835,-0.1833,-0.1863,-0.186,-0.1859,-0.1891,-0.1885,-0.1895,-0.1908,-0.1895,-0.1891,-0.1903,-0.1865,-0.1881,-0.1877,-0.1877,-0.187,-0.1863,-0.1858,-0.193,-0.1931,-0.1931,0,0,-0.1763,-0.1774,-0.1764,-0.1773,-0.1786,-0.1801,-0.1799,-0.1817,-0.1825,-0.182,-0.1844,-0.1843,-0.1845,-0.1853,-0.1857,-0.1819,-0.1837,-0.1819,-0.1791,-0.1782,-0.1777,-0.1773,-0.1758,-0.1753,-0.1817,-0.1816,-0.1816,0,-0.1735,-0.1733,-0.1757,-0.1752,-0.1756,-0.1785,-0.1775,-0.1782,-0.1796,-0.1797,-0.1811,-0.1814,-0.1825,-0.1814,-0.1805,-0.1808,-0.1805,-0.1817,-0.1776,-0.1772,-0.1768,-0.1755,-0.1749,-0.1814,-0.1814,-0.1815,-0.1815,0,-0.1697,-0.1696,-0.1686,-0.1699,-0.1701,-0.1694,-0.1716,-0.1716,-0.1731,-0.1744,-0.1738,-0.1751,-0.1757,-0.1756,-0.1771,-0.1747,-0.1754,-0.1771,-0.1795,-0.1759,-0.1747,-0.1742,-0.1811,-0.1812,-0.1812,-0.1813,0,0,-0.1633,-0.1658,-0.1654,-0.1659,-0.1676,-0.1675,-0.1669,-0.1675,-0.1674,-0.1682,-0.1677,-0.1678,-0.1694,-0.1699,-0.1715,-0.1707,-0.1675,-0.1725,-0.1726,-0.1715,-0.1649,-0.1636,-0.163,-0.1688,-0.1687,-0.1686,-0.1648,0,-0.1596,-0.1586,-0.1607,-0.1593,-0.1591,-0.1619,-0.1613,-0.1623,-0.1635,-0.1635,-0.1649,-0.1649,-0.167,-0.1673,-0.1667,-0.168,-0.1662,-0.1684,-0.1682,-0.1682,-0.1678,-0.1623,-0.1609,-0.1573,-0.1644,-0.1643,-0.1642,0,-0.1551,-0.1557,-0.1542,-0.1559,-0.156,-0.1554,-0.1561,-0.1561,-0.1572,-0.1581,-0.1586,-0.1605,-0.1599,-0.1622,-0.1614,-0.1628,-0.1629,-0.1635,-0.1634,-0.1635,-0.1659,-0.1621,-0.1562,-0.1556,-0.1635,-0.1636,-0.1636,0,-0.1504,-0.1509,-0.15,-0.1504,-0.1524,-0.152,-0.1528,-0.154,-0.1542,-0.1547,-0.1549,-0.1554,-0.1556,-0.1559,-0.1578,-0.1593,-0.1568,-0.1593,-0.1575,-0.1574,-0.1568,-0.1568,-0.1507,-0.1569,-0.1569,-0.157,-0.157,0,-0.1461,-0.145,-0.148,-0.1474,-0.1463,-0.1487,-0.1476,-0.1486,-0.1497,-0.1494,-0.1518,-0.1515,-0.1541,-0.154,-0.1555,-0.1546,-0.1547,-0.1554,-0.1558,-0.1551,-0.155,-0.1552,-0.1554,-0.1568,-0.1568,-0.1569,-0.1569,0,-0.1407,-0.1426,-0.1418,-0.1438,-0.1442,-0.1433,-0.145,-0.1445,-0.1459,-0.1455,-0.1455,-0.1476,-0.1476,-0.1496,-0.15,-0.151,-0.1495,-0.1504,-0.1491,-0.1494,-0.1475,-0.1476,-0.1412,-0.1404,-0.1472,-0.1471,-0.1471,0,-0.1377,-0.137,-0.1388,-0.1388,-0.1395,-0.1394,-0.1396,-0.1419,-0.142,-0.1431,-0.1425,-0.1428,-0.1431,-0.143,-0.1445,-0.1448,-0.1457,-0.1435,-0.1458,-0.1451,-0.1456,-0.1456,-0.1455,-0.1429,-0.1429,-0.1428,-0.1427,0,-0.1322,-0.1332,-0.1334,-0.1339,-0.1341,-0.1346,-0.1353,-0.1351,-0.1376,-0.1376,-0.1376,-0.1378,-0.1383,-0.1384,-0.139,-0.1398,-0.1416,-0.142,-0.1416,-0.1409,-0.1402,-0.1405,-0.1477,-0.1421,-0.1422,-0.1422,-0.1423,-0.1423,-0.1279,-0.1274,-0.1286,-0.1287,-0.1294,-0.13,-0.1296,-0.131,-0.131,-0.1316,-0.1329,-0.1327,-0.1338,-0.1348,-0.1354,-0.1352,-0.1364,-0.1358,-0.1357,-0.1355,-0.1351,-0.1402,-0.1354,-0.1354,-0.1354,-0.1354,-0.1354,0,-0.1226,-0.1234,-0.1235,-0.1244,-0.1244,-0.1262,-0.127,-0.1269,-0.1267,-0.1276,-0.1278,-0.1278,-0.128,-0.1295,-0.1298,-0.1294,-0.1302,-0.1294,-0.1294,-0.1296,-0.1341,-0.1344,-0.1287,-0.1287,-0.1287,-0.1287,-0.1287,-0.1287,-0.1198,-0.1189,-0.12,-0.1195,-0.1204,-0.1202,-0.1205,-0.121,-0.1217,-0.1216,-0.1217,-0.1228,-0.1239,-0.1243,-0.1245,-0.1249,-0.1249,-0.1237,-0.1244,-0.1286,-0.1293,-0.1299,-0.1302,-0.1237,-0.1237,-0.12,-0.1199,-0.1199]},{"header":{"parameterUnit":"m.s-1","parameterCategory":1,"la1":30.2991,"la2":30.254,"lo1":-89.0895,"lo2":-89.0444,"dy":0.0017,"dx":0.0017,"nx":28,"ny":28,"refTime":"2023-11-20T03:00:00:Z","depth":0,"parameterNumber":3,"parameterNumberName":"V-component_of_WINDS"},"data":[0,0,0,0,0,0,0,0,0,0,0,0,0,0,0,0,0,0,0,0,0,0,0,0,0,0,0,0,0,0,0,0,0,0,0,0,0,0,0,0,0,0,0,0,0,0,0,0,0,0,0,0,0,0,0,0,0,0,3.5722,3.5724,0,3.5837,3.5838,3.5839,3.5861,3.586,3.5859,3.5858,3.5985,3.599,3.5994,0,0,0,0,0,0,0,0,0,0,0,0,0,3.5533,3.5537,3.5722,3.5724,3.5725,3.5836,3.5838,3.584,3.5861,3.586,3.5858,3.5857,3.5984,3.5989,3.5994,0,0,0,0,0,0,0,0,0,0,0,0,0,3.5629,3.5538,3.5722,3.5749,3.5752,3.5836,3.5838,3.584,3.5861,3.586,3.5858,3.5857,3.5982,3.5989,3.5995,3.6063,0,0,3.6015,3.6017,0,0,0,0,0,0,0,0,3.5623,3.5636,3.5743,3.5747,3.5751,3.5833,3.5818,3.5915,3.5861,3.582,3.5858,3.5856,3.5936,3.5947,3.5972,3.6069,3.6075,3.6015,3.6019,3.6022,3.6024,0,0,0,0,0,0,0,3.5616,3.5631,3.5768,3.5745,3.575,3.5759,3.5771,3.5837,3.5885,3.5824,3.5825,3.5838,3.5938,3.5965,3.5975,3.6076,3.6015,3.6021,3.6025,3.6027,3.624,3.6241,0,0,0,0,0,0,3.5604,3.5625,3.5764,3.5771,3.5682,3.5763,3.5777,3.5808,3.5884,3.5895,3.5839,3.5839,3.5955,3.5967,3.5979,3.6066,3.6022,3.6028,3.6031,3.6238,3.624,3.6242,0,0,0,0,0,0,3.5599,3.5616,3.576,3.5699,3.5718,3.5768,3.5803,3.5811,3.5838,3.5896,3.5906,3.5857,3.5954,3.597,3.6042,3.6071,3.6031,3.6037,3.6236,3.6239,3.6241,3.6239,0,0,0,0,0,0,3.5594,3.5614,3.5638,3.5699,3.5721,3.5817,3.5805,3.5814,3.5848,3.5848,3.5915,3.5925,3.5954,3.6032,3.6048,3.6079,3.6042,3.6233,3.6237,3.624,3.6237,3.6241,3.6245,0,0,0,0,0,3.5587,3.5634,3.5639,3.5656,3.5751,3.5818,3.5831,3.5861,3.585,3.5876,3.5914,3.5923,3.6065,3.604,3.6058,3.6091,3.6232,3.6236,3.624,3.6235,3.6241,3.6245,0,0,0,0,0,0,3.5579,3.5643,3.5649,3.5716,3.5761,3.5822,3.5856,3.5865,3.5917,3.5916,3.5954,3.5969,3.6039,3.6072,3.6043,3.6163,3.6148,3.6156,3.6138,3.6144,3.6148,3.614,3.6047,0,0,0,0,0,3.5584,3.563,3.5685,3.574,3.5762,3.5805,3.5835,3.5854,3.5904,3.5924,3.5967,3.6018,3.6075,3.6111,3.6166,3.6242,3.6259,3.6274,3.6278,3.6281,3.6288,3.6334,3.6342,3.6255,3.6255,3.6255,0,0,3.5597,3.5638,3.5665,3.5739,3.5776,3.5827,3.5821,3.5874,3.5914,3.5934,3.6003,3.6037,3.6097,3.6171,3.6207,3.6201,3.6315,3.6286,3.6288,3.6294,3.6339,3.6347,3.6354,3.6258,3.6257,3.6257,0,0,3.5647,3.568,3.5731,3.5768,3.5823,3.5851,3.5863,3.5923,3.5945,3.6015,3.6031,3.6081,3.6176,3.6218,3.6253,3.632,3.6332,3.6337,3.6359,3.6403,3.641,3.6417,3.6443,3.6452,3.6343,3.6343,3.6343,0,3.5657,3.573,3.5756,3.5809,3.5843,3.586,3.5913,3.5949,3.6021,3.6046,3.6038,3.6158,3.62,3.6286,3.6302,3.6329,3.6347,3.633,3.6406,3.6413,3.6419,3.6445,3.6455,3.6344,3.6344,3.6344,3.6343,0,3.5741,3.5792,3.5826,3.5892,3.5929,3.5982,3.602,3.6056,3.6072,3.6102,3.6176,3.6226,3.6292,3.6314,3.6331,3.6404,3.6399,3.6398,3.6385,3.6428,3.6453,3.6463,3.6344,3.6344,3.6344,3.6344,0,0,3.5789,3.5867,3.588,3.5911,3.5974,3.6016,3.6071,3.6133,3.6164,3.6213,3.6263,3.6344,3.6344,3.6383,3.6405,3.6443,3.6497,3.6439,3.6441,3.645,3.6584,3.6585,3.6595,3.6504,3.6506,3.6508,3.6579,0,3.5847,3.5942,3.5968,3.605,3.61,3.6118,3.6167,3.6213,3.6243,3.6292,3.6328,3.6385,3.6379,3.6403,3.6442,3.6482,3.6525,3.6477,3.6555,3.6558,3.6541,3.6608,3.6609,3.6674,3.6589,3.6591,3.6592,0,3.5928,3.5976,3.6062,3.612,3.6142,3.6184,3.6244,3.629,3.6344,3.6364,3.6407,3.6426,3.6489,3.6471,3.656,3.6527,3.6561,3.6586,3.659,3.66,3.6578,3.6622,3.6696,3.6706,3.6607,3.6606,3.6605,0,3.5957,3.6043,3.6106,3.6132,3.6201,3.6231,3.6262,3.6314,3.635,3.6403,3.6428,3.6489,3.6524,3.6573,3.661,3.6592,3.6697,3.6681,3.6719,3.6718,3.6741,3.674,3.6823,3.676,3.6759,3.6759,3.6759,0,3.602,3.6073,3.612,3.6159,3.622,3.6251,3.6312,3.6345,3.6391,3.644,3.646,3.6506,3.6551,3.6605,3.6634,3.6706,3.6721,3.6742,3.6749,3.6741,3.6738,3.6765,3.6762,3.6762,3.6761,3.6761,3.676,0,3.6063,3.6096,3.6167,3.6225,3.6241,3.6284,3.6336,3.6377,3.6408,3.647,3.6487,3.6537,3.6601,3.6642,3.6724,3.6745,3.6823,3.6829,3.6804,3.6808,3.6844,3.6841,3.6949,3.6966,3.6889,3.6889,3.689,0,3.6102,3.6143,3.6205,3.6237,3.6267,3.632,3.6356,3.6389,3.6427,3.6493,3.6527,3.6591,3.6645,3.6747,3.6794,3.6858,3.6867,3.69,3.6877,3.6868,3.687,3.6868,3.6874,3.6905,3.6905,3.6906,3.6906,0,3.6169,3.6184,3.6233,3.6289,3.6331,3.6377,3.6424,3.6451,3.6493,3.6535,3.6599,3.664,3.6724,3.6789,3.6857,3.6894,3.6909,3.6913,3.6925,3.6918,3.6903,3.6914,3.6817,3.6911,3.691,3.691,3.691,3.691,3.6214,3.6251,3.6301,3.6356,3.6394,3.6437,3.6479,3.6514,3.6567,3.6635,3.6652,3.672,3.6777,3.687,3.6907,3.6964,3.696,3.6978,3.6983,3.6987,3.6989,3.6892,3.6977,3.6977,3.6977,3.6976,3.6976,0,3.6283,3.6316,3.6366,3.6429,3.6474,3.6479,3.6532,3.657,3.6628,3.6678,3.6729,3.6805,3.6869,3.692,3.6987,3.7023,3.7032,3.704,3.7038,3.7047,3.6987,3.697,3.7031,3.7031,3.7031,3.7031,3.7031,3.7031,3.6325,3.6389,3.641,3.6495,3.6529,3.6592,3.6622,3.6664,3.6704,3.6786,3.6837,3.6869,3.6921,3.6992,3.7052,3.7066,3.7091,3.7098,3.7114,3.7057,3.7051,3.7045,3.703,3.7103,3.7103,3.717,3.717,3.7171]}]]